Weather Roundup
Issued by NWS Chicago, IL

Home | Current Version | Previous Version | Graphics & Text | Print | Product List | Glossary On
Versions: 1 2 3 4 5 6 7 8 9 10 11 12 13 14 15 16 17 18 19 20 21 22 23 24 25 26 27 28 29 30 31 32 33 34 35 36 37 38 39 40 41 42 43 44 45 46 47 48 49 50
000
NZUS59 KLOT 311610
HRRLOT

CHICAGO AREA WEATHER ROUNDUP
NATIONAL WEATHER SERVICE CHICAGO/ROMEOVILLE IL
1100 AM CDT FRI OCT 31 2014

NOTE: "FAIR" INDICATES FEW OR NO CLOUDS BELOW 12,000 FEET WITH NO
SIGNIFICANT WEATHER AND/OR OBSTRUCTIONS TO VISIBILITY.

* THESE STATIONS ARE NOT UNDER NWS QUALITY CONTROL. THEY ALSO MAY NOT
  REPORT WEATHER SUCH AS PRECIPITATION OR FOG.

ILZ005-006-012>014-019>023-311700-
NORTHEAST ILLINOIS

CITY           SKY/WX    TMP DP  RH WIND       PRES   REMARKS
OHARE          CLOUDY    37  25  61 N30G43    30.15R
MIDWAY         FLURRIES  40  26  57 N23G48    30.13R
AURORA         MOSUNNY   39  24  55 N36G44    30.18R
LANSING*       CLOUDY    39  28  65 N24G37    30.09S
JOLIET*        CLOUDY    39  25  56 N28G36    30.16R
WAUKEGAN       CLOUDY    35  24  64 NW21G35   30.15R WCI  24
DUPAGE AIRPORT CLOUDY    38  26  62 NW30G37   30.17R
WHEELING       CLOUDY    37  26  64 N25G41    30.17R
KANKAKEE*      CLOUDY    41  30  65 NW25G31   30.12S
MORRIS*        PTSUNNY   41  28  59 N17G24    30.17R
LEWIS AIRPORT* RAIN      38  26  61 N21G36    30.15R
NORTHERLY IS     N/A     38  30  73 MISG        N/A
$$

WIZ051-052-058>065-066-070>072-311700-
SOUTHEAST WISCONSIN

CITY           SKY/WX    TMP DP  RH WIND       PRES   REMARKS
MILWAUKEE      CLOUDY    37  24  59 N35G46    30.18R
KENOSHA*       CLOUDY    37  25  61 N22G35    30.17R
RACINE*        MIX PCPN  37  24  59 N23G37    30.17R
BURLINGTON     CLOUDY    34  23  64 N28G36    30.21R WCI  21
WAUKESHA       CLOUDY    34  21  60 N17G36    30.22R WCI  23
WEST BEND      CLOUDY    34  23  64 N22G38    30.22R WCI  22
$$

INZ001>003-010>013-019-020-311700-
NORTHWEST INDIANA

CITY           SKY/WX    TMP DP  RH WIND       PRES   REMARKS
GARY*          CLOUDY    41  32  70 NW35G49   30.10R
MICHIGAN CITY* NOT AVBL
RENSSELAER*    NOT AVBL
VALPARAISO     LGT SNOW  38  36  92 NW20G39   30.03  FOG
$$

LMZ740>746-311700-
SOUTHERN LAKE MICHIGAN

STATION/POSITION TIME  SKY/WX   TEMP WIND        PRES    VSBY
                                AIR  DIR/SP/G
                 (UTC)          (F)  (DEG/KT/KT) (MB)    (MI)
HARRISON CRIB    1500            38  330/ 40/ 49   N/A
BURNHAM HARBOR   1600            37  300/ 20/ 28   N/A
CALUMET HARBOR   1600            38  310/ 14/ 29 1018.2R
BURNS HARBOR     NOT AVBL
MICHIGAN CITY    1600            40  320/ 47/ 57   N/A
$$

ABBREVIATIONS USED IN REMARKS
   TC - TEMPERATURE IN CELSIUS
  WCI - WIND CHILL INDEX
   HX - HEAT INDEX
  VSB - VISIBILITY
$$



USA.gov is the U.S. government's official web portal to all federal, state and local government web resources and services.